Location: Brad
(46.1333°N, 22.7833°E)
Time: 05:07:33
(UTC+00:00)

IRIDIUM 103 - Pass Details

Date: 03 February 2023
Orbit: 776 x 779 km, 86.4° (Epoch: 28 March)

Event Time Altitude Azimuth Distance (km) Brightness Sun altitude
Rises 17:04:22 0° 358° (N) 3,276 7.5 -15.5°
Reaches altitude 10° 17:06:45 10° 2° (N) 2,343 6.7 -15.9°
Maximum altitude 17:11:58 66° 85° (E) 851 4.2 -16.8°
Drops below altitude 10° 17:17:09 10° 167° (SSE) 2,324 6.7 -17.7°
Sets 17:19:30 0° 170° (S) 3,247 7.5 -18.1°
